Location: Casone le Fosse
(44.6547°N, 12.1103°E)
Time: 11:47:24
(UTC+00:00)

Okean-O - Pass Details

Date: 29 October 2020
Orbit: 638 x 641 km, 98.2° (Epoch: 28 November)

Event Time Altitude Azimuth Distance (km) Brightness Sun altitude
Rises 17:57:51 0° 176° (S) 2,932 6.0 -20.7°
Reaches altitude 10° 18:00:04 10° 180° (S) 2,028 5.2 -21.1°
Maximum altitude 18:04:25 57° 259° (W) 759 3.2 -21.9°
Drops below altitude 10° 18:08:48 10° 338° (NNW) 2,043 5.5 -22.7°
Sets 18:11:03 0° 343° (NNW) 2,956 6.3 -23.1°
